Change the Weather History Date:

Monday, September 2, 2013

  Actual Average Record
Temperature  
Mean Temperature 71 °F 64 °F  
Max Temperature 80 °F 80 °F 97 °F (1950)
Min Temperature 62 °F 47 °F 32 °F (2008)
Degree Days  
Heating Degree Days 0 3  
Month to date heating degree days 0 6  
Since 1 July heating degree days 0 63  
Cooling Degree Days 6 2  
Month to date cooling degree days 13 4  
Year to date cooling degree days 601 348  
Growing Degree Days 21 (Base 50)    
Moisture  
Dew Point 61 °F    
Average Humidity 73    
Maximum Humidity 93    
Minimum Humidity 53    
Precipitation  
Precipitation 0.28 in 0.01 in 0.37 in (1997)
Month to date precipitation 0.28 0.03  
Year to date precipitation 2.98 6.79  
Sea Level Pressure  
Sea Level Pressure 29.90 in    
Wind  
Wind Speed 8 mph (SE)    
Max Wind Speed 26 mph    
Max Gust Speed 36 mph    
Visibility 10 miles    
Events Rain    
T = Trace of Precipitation, MM = Missing Value Source: NWS Daily Summary

Daily Weather History Graph

Daily Weather History Graph

Search for Another Location

Airport or City:

Trip Planner

Search our weather history database for the weather conditions in past years. The results will help you decide how hot, cold, wet, or windy it might be!

Date:

Astronomy

Sep. 02, 2013 Rise Set
Actual Time 7:01 AM MDT 8:06 PM MDT
Civil Twilight 6:32 AM MDT 8:35 PM MDT
Nautical Twilight 5:57 AM MDT 9:10 PM MDT
Astronomical Twilight 5:21 AM MDT 9:46 PM MDT
Moon 4:20 AM MDT (9/2) 6:24 PM MDT (9/2)
Length of Visible Light 14h 03m
Length of Day
13h 05m
Waning Crescent, 7% of the Moon is Illuminated
Sep 2
Waning Crescent
Sep 5
New
Sep 12
First Quarter
Sep 19
Full
Sep 26
Last Quarter

Hourly Weather History & Observations

Time (MDT) Temp. Dew Point Humidity Pressure Visibility Wind Dir Wind Speed Gust Speed Precip Events Conditions
12:53 AM 64.9 °F 57.0 °F 75% 29.81 in 9.0 mi Calm Calm - N/A   Clear
1:53 AM 63.0 °F 53.1 °F 70% 29.81 in 10.0 mi Calm Calm - N/A   Partly Cloudy
2:53 AM 69.1 °F 51.1 °F 53% 29.79 in 10.0 mi Calm Calm - N/A   Clear
3:53 AM 66.0 °F 55.0 °F 68% 29.79 in 10.0 mi South 5.8 mph - N/A   Partly Cloudy
4:53 AM 68.0 °F 61.0 °F 78% 29.81 in 10.0 mi SSW 17.3 mph 23.0 mph 0.01 in Rain Light Rain
5:53 AM 66.0 °F 61.0 °F 84% 29.84 in 10.0 mi SSW 20.7 mph 31.1 mph 0.00 in Rain Light Rain
6:53 AM 64.0 °F 61.0 °F 90% 29.87 in 10.0 mi SSW 15.0 mph - 0.04 in Rain Light Rain
7:53 AM 64.0 °F 61.0 °F 90% 29.88 in 10.0 mi South 8.1 mph - 0.01 in Rain Light Rain
8:53 AM 66.0 °F 61.0 °F 84% 29.90 in 10.0 mi South 6.9 mph - 0.00 in   Overcast
9:53 AM 64.9 °F 63.0 °F 93% 29.93 in 10.0 mi Calm Calm - 0.00 in Rain Light Rain
10:24 AM 64.4 °F 62.6 °F 94% 30.05 in 4.0 mi ESE 6.9 mph - 0.02 in Rain Rain
10:36 AM 64.4 °F 62.6 °F 94% 30.05 in 10.0 mi SE 5.8 mph - 0.03 in Rain Light Rain
10:53 AM 64.9 °F 63.0 °F 93% 29.95 in 6.0 mi ESE 8.1 mph - 0.03 in Rain Light Rain
11:53 AM 68.0 °F 64.0 °F 87% 29.95 in 10.0 mi East 3.5 mph - 0.01 in   Overcast
12:53 PM 73.0 °F 64.9 °F 76% 29.93 in 10.0 mi NNE 5.8 mph - N/A   Overcast
1:53 PM 73.9 °F 64.0 °F 71% 29.94 in 10.0 mi Variable 4.6 mph - N/A   Partly Cloudy
2:53 PM 77.0 °F 61.0 °F 58% 29.91 in 10.0 mi East 6.9 mph - N/A   Clear
3:53 PM 79.0 °F 61.0 °F 54% 29.88 in 10.0 mi NE 10.4 mph - N/A   Clear
4:53 PM 79.0 °F 60.1 °F 52% 29.87 in 10.0 mi NE 10.4 mph - N/A   Clear
5:53 PM 75.0 °F 60.1 °F 60% 29.87 in 10.0 mi NE 8.1 mph - N/A   Clear
6:53 PM 73.0 °F 62.1 °F 68% 29.88 in 10.0 mi ENE 9.2 mph - N/A   Partly Cloudy
7:53 PM 72.0 °F 63.0 °F 73% 29.88 in 10.0 mi East 10.4 mph - N/A   Partly Cloudy
8:53 PM 69.1 °F 63.0 °F 81% 29.91 in 10.0 mi Calm Calm - N/A   Mostly Cloudy
9:53 PM 64.9 °F 61.0 °F 87% 30.01 in 10.0 mi SSW 18.4 mph 31.1 mph 0.01 in Rain Light Rain
10:53 PM 64.0 °F 61.0 °F 90% 30.01 in 7.0 mi South 13.8 mph - 0.13 in Rain Rain
11:53 PM 64.0 °F 59.0 °F 84% 29.98 in 10.0 mi ESE 6.9 mph - 0.03 in Rain Light Rain